This demonstration page uses our WeatherBlox Daily Observations layout. Learn more.

Left ArrowRight Arrow

34.74481, -87.66753

Hourly Observations for July 28, 2019

Temp ( °F °C ) Dew Point ( °F °C ) Humidity (%) Winds ( mph kmh ) Pressure ( in mb ) Visibility ( mi km ) Precip ( " mm )
12:53 am 00:53 Mostly Cloudy 74 23.3 71 21.7 91 91 Calm 30.18 1022 10 16 0.00 0.00
1:53 am 01:53 Clear 72 22.2 70 21.1 94 94 Calm 30.17 1022 10 16 0.00 0.00
2:53 am 02:53 Clear 73 22.8 70 21.1 90 90 Calm 30.16 1021 10 16 0.00 0.00
3:53 am 03:53 Clear 72 22.2 69 20.6 91 91 Calm 30.17 1022 10 16 0.00 0.00
4:53 am 04:53 Mostly Cloudy 70 21.1 68 20 93 93 Calm 30.17 1022 10 16 0.00 0.00
5:53 am 05:53 Clear 70 21.1 68 20 93 93 SSE 3 6 30.18 1022 10 16 0.00 0.00
6:53 am 06:53 Mostly Sunny 72 22.2 69 20.6 91 91 Calm 30.19 1022 10 16 0.00 0.00
7:53 am 07:53 Sunny 76 24.4 70 21.1 82 82 SE 3 6 30.20 1023 10 16 0.00 0.00
8:53 am 08:53 Sunny 80 26.7 68 20 67 67 SE 5 7 30.21 1023 10 16 0.00 0.00
9:53 am 09:53 Sunny 83 28.3 69 20.6 63 63 Calm 30.19 1023 10 16 0.00 0.00
10:53 am 10:53 Sunny 87 30.6 69 20.6 55 55 Calm 30.19 1022 10 16 0.00 0.00
11:53 am 11:53 Sunny 91 32.8 68 20 47 47 NNE 6 9 30.17 1022 10 16 0.00 0.00
12:53 pm 12:53 Sunny 93 33.9 64 17.8 38 38 NNW 7 11 30.16 1021 10 16 0.00 0.00
1:53 pm 13:53 Mostly Cloudy 89 31.7 67 19.4 48 48 NNW 3 6 30.14 1021 10 16 0.00 0.00
2:53 pm 14:53 Cloudy 82 27.8 68 20 63 63 W 9 15 30.14 1021 10 16 0.00 0.00
3:53 pm 15:53 Cloudy 83 28.3 67 19.4 59 59 WSW 3 6 30.12 1020 10 16 0.00 0.00
4:53 pm 16:53 Cloudy 80 26.7 59 15 49 49 SW 9 15 30.12 1020 10 16 0.00 0.00
6:53 pm 18:53 Cloudy 79 26.1 66 18.9 65 65 Calm 30.09 1019 10 16 0.00 0.00
7:53 pm 19:53 Partly Cloudy 76 24.4 69 20.6 79 79 Calm 30.09 1019 10 16 0.00 0.00
8:53 pm 20:53 Clear 74 23.3 68 20 82 82 Calm 30.09 1019 10 16 0.00 0.00
9:53 pm 21:53 Clear 72 22.2 67 19.4 84 84 ESE 3 6 30.10 1019 10 16 0.00 0.00
10:53 pm 22:53 Partly Cloudy 71 21.7 67 19.4 87 87 Calm 30.10 1019 10 16 0.00 0.00
11:53 pm 23:53 Clear 70 21.1 66 18.9 87 87 Calm 30.09 1019 10 16 0.00 0.00

Powered by AerisWeather